• In Netherlands
  • List of Countries
  • For 7 days
  • Water Temperature
  • Satellite Maps
  • Weather Map
  • Weather Widgets
  • user-avatar
    Login

    Hourly Weather Fier

    Today, 25 May, Thursday

    Time Temperature Precipitation Wind Pressure Humidity
    00:00 +15°C° 0 mm 1 mps 759 mmHg 89%
    01:00 +15°C° 0 mm 1 mps 759 mmHg 89%
    02:00 +15°C° 0.1 mm 1 mps 759 mmHg 89%
    03:00 +15°C° 0.1 mm 1 mps 759 mmHg 89%
    04:00 +15°C° 0.1 mm 1 mps 758 mmHg 89%
    05:00 +18°C° 0.1 mm 1 mps 758 mmHg 83%
    06:00 +20°C° 0.1 mm 1 mps 758 mmHg 77%
    07:00 +21°C° 0.1 mm 2 mps 758 mmHg 70%
    08:00 +23°C° 0.2 mm 2 mps 758 mmHg 66%
    09:00 +24°C° 0.2 mm 2 mps 758 mmHg 62%
    10:00 +25°C° 0.2 mm 3 mps 758 mmHg 58%
    11:00 +24°C° 0.9 mm 3 mps 758 mmHg 62%
    12:00 +23°C° 0.9 mm 4 mps 758 mmHg 66%
    13:00 +23°C° 0.9 mm 4 mps 758 mmHg 69%
    14:00 +22°C° 1.3 mm 4 mps 758 mmHg 73%
    15:00 +21°C° 1.3 mm 5 mps 758 mmHg 77%
    16:00 +20°C° 1.3 mm 5 mps 758 mmHg 81%
    17:00 +19°C° 1 mm 4 mps 758 mmHg 85%
    18:00 +18°C° 1 mm 3 mps 757 mmHg 90%
    19:00 +17°C° 1 mm 2 mps 757 mmHg 94%
    20:00 +17°C° 0.5 mm 3 mps 757 mmHg 93%
    21:00 +17°C° 0.5 mm 3 mps 758 mmHg 93%
    22:00 +17°C° 0.5 mm 3 mps 758 mmHg 93%
    23:00 +16°C° 0.3 mm 3 mps 758 mmHg 92%

    Tomorrow, 26 May, Friday

    Time Temperature Precipitation Wind Pressure Humidity
    00:00 +16°C° 0.3 mm 3 mps 757 mmHg 92%
    01:00 +16°C° 0.3 mm 3 mps 757 mmHg 91%
    02:00 +14°C° 0.3 mm 3 mps 757 mmHg 91%
    03:00 +15°C° 0.3 mm 2 mps 757 mmHg 91%
    04:00 +14°C° 0.3 mm 2 mps 757 mmHg 91%
    05:00 +15°C° 0.2 mm 2 mps 757 mmHg 88%
    06:00 +17°C° 0.2 mm 2 mps 757 mmHg 84%
    07:00 +18°C° 0.2 mm 2 mps 757 mmHg 80%
    08:00 +19°C° 0.1 mm 3 mps 757 mmHg 75%
    09:00 +20°C° 0.1 mm 3 mps 758 mmHg 69%
    10:00 +21°C° 0.1 mm 3 mps 758 mmHg 63%
    11:00 +22°C° 0.2 mm 3 mps 758 mmHg 62%
    12:00 +22°C° 0.2 mm 4 mps 758 mmHg 61%
    13:00 +23°C° 0.2 mm 4 mps 758 mmHg 60%
    14:00 +22°C° 0.2 mm 5 mps 757 mmHg 62%
    15:00 +22°C° 0.2 mm 5 mps 757 mmHg 63%
    16:00 +22°C° 0.2 mm 5 mps 757 mmHg 65%
    17:00 +20°C° 0.1 mm 5 mps 757 mmHg 71%
    18:00 +19°C° 0.1 mm 4 mps 757 mmHg 78%
    19:00 +17°C° 0.1 mm 4 mps 758 mmHg 84%
    20:00 +17°C° 0 mm 4 mps 758 mmHg 85%
    21:00 +16°C° 0 mm 3 mps 758 mmHg 86%
    22:00 +16°C° 0 mm 3 mps 759 mmHg 86%
    23:00 +16°C° 0 mm 3 mps 758 mmHg 85%

    Day after tomorrow, 27 May, Saturday

    Time Temperature Precipitation Wind Pressure Humidity
    00:00 +16°C° 0 mm 3 mps 758 mmHg 84%
    01:00 +16°C° 0 mm 2 mps 758 mmHg 83%
    02:00 +15°C° 0 mm 2 mps 758 mmHg 83%
    03:00 +15°C° 0 mm 2 mps 758 mmHg 82%
    04:00 +15°C° 0 mm 2 mps 759 mmHg 82%
    05:00 +17°C° 0 mm 2 mps 759 mmHg 77%
    06:00 +18°C° 0 mm 2 mps 759 mmHg 72%
    07:00 +20°C° 0 mm 2 mps 759 mmHg 66%
    08:00 +22°C° 0 mm 3 mps 760 mmHg 60%
    09:00 +25°C° 0 mm 3 mps 760 mmHg 54%
    10:00 +27°C° 0 mm 3 mps 760 mmHg 48%
    11:00 +27°C° 0.2 mm 3 mps 760 mmHg 49%
    12:00 +27°C° 0.2 mm 4 mps 760 mmHg 49%
    13:00 +27°C° 0.2 mm 5 mps 760 mmHg 50%
    14:00 +27°C° 0.4 mm 5 mps 760 mmHg 53%
    15:00 +26°C° 0.4 mm 5 mps 759 mmHg 56%
    16:00 +26°C° 0.4 mm 6 mps 759 mmHg 59%
    17:00 +23°C° 0.1 mm 5 mps 760 mmHg 66%
    18:00 +21°C° 0.1 mm 5 mps 760 mmHg 74%
    19:00 +19°C° 0.1 mm 4 mps 760 mmHg 81%
    20:00 +19°C° 0 mm 4 mps 761 mmHg 82%
    21:00 +18°C° 0 mm 4 mps 761 mmHg 83%
    22:00 +18°C° 0 mm 3 mps 761 mmHg 83%
    23:00 +17°C° 0 mm 3 mps 761 mmHg 82%

    28 May, Sunday

    Time Temperature Precipitation Wind Pressure Humidity
    00:00 +17°C° 0 mm 3 mps 761 mmHg 81%
    01:00 +17°C° 0 mm 3 mps 761 mmHg 80%
    02:00 +17°C° 0 mm 3 mps 762 mmHg 79%
    03:00 +16°C° 0 mm 3 mps 762 mmHg 78%
    04:00 +16°C° 0 mm 3 mps 762 mmHg 77%
    05:00 +18°C° 0 mm 3 mps 762 mmHg 72%
    06:00 +20°C° 0 mm 3 mps 762 mmHg 68%
    07:00 +21°C° 0 mm 3 mps 762 mmHg 64%
    08:00 +24°C° 0 mm 3 mps 763 mmHg 57%
    09:00 +26°C° 0 mm 3 mps 763 mmHg 50%
    10:00 +28°C° 0 mm 3 mps 763 mmHg 43%
    11:00 +28°C° 0 mm 3 mps 763 mmHg 41%
    12:00 +29°C° 0 mm 3 mps 763 mmHg 40%
    13:00 +29°C° 0 mm 4 mps 763 mmHg 38%
    14:00 +29°C° 0.1 mm 4 mps 763 mmHg 40%
    15:00 +29°C° 0.1 mm 4 mps 763 mmHg 42%
    16:00 +28°C° 0.1 mm 4 mps 763 mmHg 44%
    17:00 +26°C° 0.1 mm 4 mps 763 mmHg 53%
    18:00 +23°C° 0.1 mm 4 mps 763 mmHg 63%
    19:00 +20°C° 0.1 mm 3 mps 763 mmHg 72%
    20:00 +20°C° 0 mm 3 mps 764 mmHg 73%
    21:00 +19°C° 0 mm 2 mps 764 mmHg 74%
    22:00 +19°C° 0 mm 2 mps 764 mmHg 76%
    23:00 +18°C° 0 mm 2 mps 764 mmHg 75%

    29 May, Monday

    Time Temperature Precipitation Wind Pressure Humidity
    00:00 +18°C° 0 mm 2 mps 764 mmHg 74%
    01:00 +18°C° 0 mm 2 mps 764 mmHg 73%
    02:00 +18°C° 0 mm 2 mps 764 mmHg 73%
    03:00 +18°C° 0 mm 2 mps 764 mmHg 73%
    04:00 +17°C° 0 mm 2 mps 764 mmHg 72%
    05:00 +19°C° 0 mm 2 mps 764 mmHg 68%
    06:00 +21°C° 0 mm 2 mps 764 mmHg 64%
    07:00 +24°C° 0 mm 2 mps 764 mmHg 60%
    08:00 +25°C° 0 mm 1 mps 764 mmHg 54%
    09:00 +27°C° 0 mm 1 mps 763 mmHg 49%
    10:00 +28°C° 0 mm 1 mps 763 mmHg 43%
    11:00 +29°C° 0 mm 2 mps 763 mmHg 42%
    12:00 +29°C° 0 mm 2 mps 762 mmHg 41%
    13:00 +29°C° 0 mm 3 mps 762 mmHg 40%
    14:00 +28°C° 0 mm 3 mps 762 mmHg 43%
    15:00 +28°C° 0 mm 3 mps 761 mmHg 46%
    16:00 +27°C° 0 mm 3 mps 761 mmHg 49%
    17:00 +25°C° 0 mm 2 mps 761 mmHg 58%
    18:00 +23°C° 0 mm 2 mps 761 mmHg 68%
    19:00 +21°C° 0 mm 1 mps 761 mmHg 78%
    20:00 +20°C° 0 mm 1 mps 761 mmHg 79%
    21:00 +19°C° 0 mm 1 mps 761 mmHg 80%
    22:00 +19°C° 0 mm 1 mps 762 mmHg 82%
    23:00 +18°C° 0 mm 1 mps 761 mmHg 81%

    30 May, Tuesday

    Time Temperature Precipitation Wind Pressure Humidity
    00:00 +18°C° 0 mm 1 mps 761 mmHg 80%
    01:00 +18°C° 0 mm 1 mps 761 mmHg 78%
    02:00 +18°C° 0 mm 1 mps 761 mmHg 78%
    03:00 +18°C° 0 mm 1 mps 761 mmHg 78%
    04:00 +16°C° 0 mm 1 mps 760 mmHg 78%
    05:00 +20°C° 0 mm 1 mps 760 mmHg 70%
    06:00 +22°C° 0 mm 1 mps 761 mmHg 61%
    07:00 +24°C° 0 mm 1 mps 761 mmHg 53%
    08:00 +26°C° 0 mm 1 mps 761 mmHg 50%
    09:00 +27°C° 0 mm 1 mps 761 mmHg 46%
    10:00 +28°C° 0 mm 2 mps 761 mmHg 42%
    11:00 +29°C° 0 mm 2 mps 760 mmHg 42%
    12:00 +29°C° 0 mm 3 mps 760 mmHg 42%
    13:00 +29°C° 0 mm 4 mps 760 mmHg 42%
    14:00 +29°C° 0 mm 4 mps 760 mmHg 45%
    15:00 +28°C° 0 mm 3 mps 760 mmHg 48%
    16:00 +27°C° 0 mm 3 mps 760 mmHg 52%
    17:00 +25°C° 0 mm 3 mps 760 mmHg 61%
    18:00 +23°C° 0 mm 2 mps 760 mmHg 70%
    19:00 +21°C° 0 mm 1 mps 760 mmHg 79%
    20:00 +20°C° 0 mm 1 mps 760 mmHg 81%
    21:00 +20°C° 0 mm 1 mps 760 mmHg 84%
    22:00 +17°C° 0 mm 0 mps 761 mmHg 87%
    23:00 +19°C° 0 mm 1 mps 761 mmHg 87%
    Show more